This is the latest recevied weather packets stored in our database for station/object EA1IRT-1. If no packets are shown the sender has not sent any weather packets the latest 10 day(s).
| Time | Temp. | Humidity | Pressure | Rain* | Wind** | Luminosity | Snow |
|---|---|---|---|---|---|---|---|
| 1777819301 | 15.56° C | 100% | 1013.9 hPa | - | - | - | - |
| 1777818407 | 15° C | 100% | 1013.9 hPa | - | - | - | - |
| 1777817501 | 15° C | 100% | 1014 hPa | - | - | - | - |
| 1777816601 | 15° C | 99% | 1014 hPa | - | - | - | - |
| 1777815700 | 15.56° C | 100% | 1013.7 hPa | - | - | - | - |
| 1777814800 | 15.56° C | 99% | 1013.5 hPa | - | - | - | - |
| 1777813900 | 16.11° C | 97% | 1013.4 hPa | - | - | - | - |
| 1777813000 | 16.11° C | 97% | 1013.6 hPa | - | - | - | - |
| 1777812075 | 16.11° C | 98% | 1013.6 hPa | - | - | - | - |
| 1777811151 | 16.11° C | 98% | 1013.6 hPa | - | - | - | - |
| 1777810251 | 16.11° C | 98% | 1013.6 hPa | - | - | - | - |
| 1777809357 | 16.11° C | 100% | 1013.8 hPa | - | - | - | - |
| 1777808451 | 16.11° C | 100% | 1013.8 hPa | - | - | - | - |
| 1777807551 | 15.56° C | 100% | 1013.9 hPa | - | - | - | - |
| 1777806651 | 15.56° C | 100% | 1014 hPa | - | - | - | - |
| 1777805750 | 15° C | 100% | 1014 hPa | - | - | - | - |
| 1777804850 | 14.44° C | 100% | 1014 hPa | - | - | - | - |
| 1777803950 | 15.56° C | 97% | 1013.9 hPa | - | - | - | - |
| 1777803050 | 15.56° C | 97% | 1013.8 hPa | - | - | - | - |
| 1777802150 | 15.56° C | 97% | 1013.8 hPa | - | - | - | - |
| 1777801225 | 16.11° C | 100% | 1013.8 hPa | - | - | - | - |
| 1777800301 | 15.56° C | 100% | 1013.7 hPa | - | - | - | - |
| 1777799401 | 15.56° C | 100% | 1013.8 hPa | - | - | - | - |
| 1777798501 | 15.56° C | 100% | 1013.8 hPa | - | - | - | - |
| 1777797601 | 15.56° C | 100% | 1013.8 hPa | - | - | - | - |
* Rain since midnight (hover to see other rain measurements)
** Current wind speed in m/s (hover to see current wind gust speed)